AE7VB Weather Reports


time (UTC)temp
C
wind
direction
speed
KPH
gust
KPH
rain 1hr
cm
rain 24hr
cm
rain mn
cm
humidity
%
barometer
mb
20260510185158 22 48 1.6 6.4 0.00 0.00 0.00 45 1021.6
20260510184157 22 33 3.2 6.4 0.00 0.00 0.00 44 1021.5
20260510183125 21 73 1.6 4.8 0.00 0.00 0.00 48 1021.3
20260510182124 21 67 3.2 6.4 0.00 0.00 0.00 49 1021.3
20260510181051 21 80 3.2 6.4 0.00 0.00 0.00 49 1021.5
20260510180049 20 74 3.2 6.4 0.00 0.00 0.00 49 1021.4
20260510175049 20 14 1.6 4.8 0.00 0.00 0.00 47 1021.7
20260510174047 20 44 1.6 4.8 0.00 0.00 0.00 48 1021.9
20260510173046 19 25 3.2 6.4 0.00 0.00 0.00 49 1021.8
20260510172045 18 39 1.6 6.4 0.00 0.00 0.00 49 1022.0
20260510171044 18 62 1.6 6.4 0.00 0.00 0.00 51 1022.0
20260510170043 17 28 1.6 4.8 0.00 0.00 0.00 52 1021.9
20260510165042 17 41 1.6 4.8 0.00 0.00 0.00 51 1021.7
20260510164040 16 35 0.0 4.8 0.00 0.00 0.00 51 1021.7
20260510163039 16 25 1.6 4.8 0.00 0.00 0.00 53 1022.0
20260510162038 15 37 3.2 4.8 0.00 0.00 0.00 55 1021.8
20260510161006 15 17 1.6 6.4 0.00 0.00 0.00 56 1021.8
20260510160005 15 58 1.6 6.4 0.00 0.00 0.00 56 1021.8
20260510154932 14 11 3.2 6.4 0.00 0.00 0.00 57 1021.8
20260510153932 14 13 3.2 6.4 0.00 0.00 0.00 56 1021.8
20260510152931 13 29 1.6 6.4 0.00 0.00 0.00 59 1021.8
20260510151859 13 25 1.6 4.8 0.00 0.00 0.00 58 1021.9
20260510150858 13 38 1.6 4.8 0.00 0.00 0.00 59 1022.0
20260510145857 12 338 0.0 3.2 0.00 0.00 0.00 59 1022.1
20260510144856 12 334 1.6 4.8 0.00 0.00 0.00 59 1022.5
20260510143855 12 34 1.6 4.8 0.00 0.00 0.00 62 1022.4
20260510142853 11 36 0.0 4.8 0.00 0.00 0.00 62 1022.4
20260510141821 11 39 3.2 4.8 0.00 0.00 0.00 65 1022.4
20260510140820 11 136 1.6 3.2 0.00 0.00 0.00 67 1022.4
20260510135819 10 136 0.0 3.2 0.00 0.00 0.00 69 1022.3
20260510134819 10 146 1.6 3.2 0.00 0.00 0.00 70 1022.2
20260510133818 10 146 1.6 6.4 0.00 0.00 0.00 73 1022.5
20260510132817 8 148 1.6 6.4 0.00 0.00 0.00 76 1022.4
20260510131816 8 340 0.0 3.2 0.00 0.00 0.00 78 1022.3
20260510130815 7 338 1.6 3.2 0.00 0.00 0.00 79 1022.2
20260510125814 7 42 0.0 0.0 0.00 0.00 0.00 80 1022.2
20260510124813 7 169 0.0 0.0 0.00 0.00 0.00 79 1022.2
20260510123812 6 169 0.0 0.0 0.00 0.00 0.00 78 1022.2
20260510122811 7 168 0.0 0.0 0.00 0.00 0.00 77 1022.3
20260510121809 7 212 0.0 0.0 0.00 0.00 0.00 77 1022.4
20260510120808 7 212 0.0 0.0 0.00 0.00 0.00 77 1022.6
20260510115808 7 212 0.0 0.0 0.00 0.00 0.00 77 1022.5
20260510114807 7 211 0.0 0.0 0.00 0.00 0.00 76 1022.6
20260510113734 7 210 0.0 0.0 0.00 0.00 0.00 76 1022.6
20260510112702 7 211 0.0 0.0 0.00 0.00 0.00 75 1022.6
20260510111630 7 211 0.0 0.0 0.00 0.00 0.00 75 1022.6
20260510110629 7 211 0.0 0.0 0.00 0.00 0.00 75 1022.7
20260510105628 7 211 0.0 0.0 0.00 0.00 0.00 75 1022.7
20260510104627 7 124 0.0 0.0 0.00 0.00 0.00 75 1022.7
20260510103626 7 124 0.0 0.0 0.00 0.00 0.00 76 1022.7
20260510102625 7 125 0.0 0.0 0.00 0.00 0.00 75 1023.0
20260510101552 8 155 0.0 0.0 0.00 0.00 0.00 75 1023.1
20260510100551 8 158 0.0 0.0 0.00 0.00 0.00 75 1023.2
20260510095550 8 158 0.0 1.6 0.00 0.00 0.00 75 1023.2
20260510094549 8 169 0.0 1.6 0.00 0.00 0.00 76 1023.1
20260510093446 8 175 0.0 0.0 0.00 0.00 0.00 76 1023.1
20260510092342 8 275 0.0 0.0 0.00 0.00 0.00 76 1023.2
20260510091341 8 279 0.0 0.0 0.00 0.00 0.00 75 1023.2
20260510090340 8 279 0.0 0.0 0.00 0.00 0.00 74 1023.3
20260510085340 8 280 0.0 0.0 0.00 0.00 0.00 74 1023.3
20260510084307 8 198 0.0 0.0 0.00 0.00 0.00 73 1023.2
20260510083306 8 198 0.0 0.0 0.00 0.00 0.00 74 1023.2
20260510082306 8 198 0.0 3.2 0.00 0.00 0.00 74 1023.2
20260510081303 8 198 1.6 6.4 0.00 0.00 0.00 74 1023.5
20260510080302 8 198 1.6 6.4 0.00 0.00 0.00 74 1023.1
20260510075230 8 213 1.6 4.8 0.00 0.00 0.00 73 1023.5
20260510074229 8 221 1.6 4.8 0.00 0.00 0.00 74 1023.8
20260510073228 8 220 1.6 4.8 0.00 0.00 0.00 74 1023.5
20260510072227 9 222 0.0 6.4 0.00 0.00 0.00 73 1023.6
20260510071226 9 222 0.0 8.0 0.00 0.00 0.00 73 1023.5
20260510070224 9 217 6.4 8.0 0.00 0.00 0.00 74 1023.4
20260510065222 9 163 0.0 8.0 0.00 0.00 0.00 74 1023.5
20260510064150 8 224 0.0 4.8 0.00 0.00 0.00 75 1023.4
20260510063149 8 223 0.0 6.4 0.00 0.00 0.00 75 1023.5
20260510062148 8 224 0.0 8.0 0.00 0.00 0.00 74 1023.3
20260510061146 8 232 4.8 8.0 0.00 0.00 0.00 74 1023.5
20260510060145 9 221 4.8 6.4 0.00 0.00 0.00 73 1023.6
20260510055144 10 157 1.6 4.8 0.00 0.00 0.00 71 1023.7
20260510054143 10 158 3.2 4.8 0.00 0.00 0.00 70 1023.8
20260510053111 10 159 0.0 3.2 0.00 0.00 0.00 69 1023.7
20260510052110 10 159 0.0 8.0 0.00 0.00 0.00 69 1024.0
20260510051109 11 159 3.2 8.0 0.00 0.00 0.00 69 1024.0
20260510050108 11 150 3.2 6.4 0.00 0.00 0.00 69 1023.9
20260510045107 11 134 3.2 4.8 0.00 0.00 0.00 68 1023.9
20260510044105 11 142 3.2 4.8 0.00 0.00 0.00 67 1024.2
20260510043104 11 142 3.2 4.8 0.00 0.00 0.00 67 1023.9
20260510042103 11 137 3.2 4.8 0.00 0.00 0.00 66 1023.9
20260510041031 12 137 3.2 6.4 0.00 0.00 0.00 65 1023.8
20260510035958 12 142 1.6 8.0 0.00 0.00 0.00 65 1023.8
20260510034957 12 149 3.2 8.0 0.00 0.00 0.00 65 1023.9
20260510033955 13 158 4.8 8.0 0.00 0.00 0.00 64 1023.9
20260510032922 13 153 3.2 8.0 0.00 0.00 0.00 63 1023.7
20260510031921 14 111 3.2 4.8 0.00 0.00 0.00 60 1023.9
20260510030746 15 88 0.0 0.0 0.00 0.00 0.00 57 1024.0
20260510025745 16 88 0.0 4.8 0.00 0.00 0.00 55 1024.1
20260510024744 16 80 3.2 4.8 0.00 0.00 0.00 51 1024.1
20260510023609 17 87 1.6 4.8 0.00 0.00 0.00 51 1023.7
20260510022537 17 83 1.6 4.8 0.00 0.00 0.00 49 1023.7
20260510021504 17 53 1.6 6.4 0.00 0.00 0.00 48 1023.7
20260510020504 17 81 1.6 6.4 0.00 0.00 0.00 48 1023.5
20260510015503 17 41 1.6 4.8 0.00 0.00 0.00 47 1023.4
20260510014501 17 86 3.2 11.3 0.00 0.00 0.00 46 1023.3
20260510013427 18 60 1.6 11.3 0.00 0.00 0.00 46 1023.4
20260510012426 18 26 3.2 6.4 0.00 0.00 0.00 46 1023.5
20260510011425 18 32 3.2 6.4 0.00 0.00 0.00 45 1023.6
20260510010423 18 11 3.2 6.4 0.00 0.00 0.00 44 1024.0
20260510005422 19 66 3.2 4.8 0.00 0.00 0.00 44 1023.8
20260510004420 19 32 1.6 4.8 0.00 0.00 0.00 43 1023.8
20260510003419 19 38 3.2 4.8 0.00 0.00 0.00 43 1023.9
20260510002418 20 67 1.6 6.4 0.00 0.00 0.00 41 1023.9
20260510001416 19 29 1.6 6.4 0.00 0.00 0.00 42 1023.8
20260510000414 19 30 1.6 6.4 0.00 0.00 0.00 43 1023.7
20260509235413 19 20 1.6 6.4 0.00 0.00 0.00 43 1023.7
20260509234310 19 17 1.6 4.8 0.00 0.00 0.00 46 1023.8
20260509233309 18 34 1.6 4.8 0.00 0.00 0.00 45 1023.8
20260509232308 18 29 3.2 4.8 0.00 0.00 0.00 43 1023.8
20260509231307 18 28 3.2 8.0 0.00 0.00 0.00 45 1024.2
20260509230306 18 25 3.2 6.4 0.00 0.00 0.00 43 1024.2
20260509225202 18 253 1.6 8.0 0.00 0.00 0.00 41 1024.2
20260509224201 19 296 3.2 9.7 0.00 0.00 0.00 40 1024.3
20260509223200 18 333 1.6 11.3 0.00 0.00 0.00 43 1024.3
20260509222159 19 15 1.6 8.0 0.00 0.00 0.00 43 1024.3
20260509221158 19 32 1.6 4.8 0.00 0.00 0.00 42 1024.6
20260509220157 19 20 1.6 4.8 0.00 0.00 0.00 41 1024.6
20260509215156 19 15 1.6 6.4 0.00 0.00 0.00 43 1024.6
20260509214155 19 5 3.2 6.4 0.00 0.00 0.00 43 1025.1
20260509213154 19 67 3.2 8.0 0.00 0.00 0.00 40 1025.1
20260509212122 20 11 1.6 12.9 0.00 0.00 0.00 39 1025.2
20260509211049 20 236 4.8 12.9 0.00 0.00 0.00 34 1025.5
20260509210017 19 157 3.2 12.9 0.00 0.00 0.00 36 1025.4
20260509204945 19 230 3.2 12.9 0.00 0.00 0.00 36 1025.5
20260509203841 18 23 3.2 9.7 0.00 0.00 0.00 36 1025.8
20260509202840 18 267 3.2 11.3 0.00 0.00 0.00 36 1025.8
20260509201839 18 250 1.6 11.3 0.00 0.00 0.00 38 1025.9
20260509200837 18 288 6.4 11.3 0.00 0.00 0.00 41 1025.9
20260509195837 18 284 3.2 14.5 0.00 0.00 0.00 42 1025.9
20260509194836 18 300 4.8 12.9 0.00 0.00 0.00 39 1026.1
20260509193835 18 305 4.8 12.9 0.00 0.00 0.00 38 1026.2
20260509192834 18 288 1.6 11.3 0.00 0.00 0.00 38 1026.1
20260509191833 18 16 1.6 11.3 0.00 0.00 0.00 40 1025.9
20260509190801 18 309 3.2 11.3 0.00 0.00 0.00 43 1026.2